Home   Weather   Abilene   Past weeks
Flag for USA

Past Weather in Abilene, Texas, USA — Yesterday and Last 2 Weeks

Now
80 °F

Sunny.


Feels Like: 78 °F
Forecast: 81 / 43 °F
Wind: 10 mph from Southeast

Location: Abilene Regional Airport

Current Time: Oct 17, 2019 at 6:08:10 pm

Latest Report: Oct 17, 2019 at 4:52 pm


Visibility: 10 mi

Pressure: 29.87 "Hg (28.14 "Hg at 524m altitude)

Humidity: 14%

Dew Point: 26 °F

Location of AbileneLocation

Past Weather in Abilene — Graph

°F

Abilene Temperature Yesterday

Maximum temperature yesterday: 71 °F (at 4:52 pm)
Minimum temperature yesterday: 48 °F (at 11:52 pm)
Average temperature yesterday: 59 °F

High & Low Weather Summary for the Past Weeks

 TemperatureHumidityPressure
High96 °F (Oct 6, 2:52 pm)86% (Oct 4, 8:55 am)30.34 "Hg (Oct 4, 8:55 am)
Low34 °F (Oct 12, 5:52 am)12% (Oct 12, 2:52 pm)29.65 "Hg (Oct 9, 5:52 pm)
Average69 °F48%30.00 "Hg
* Reported Oct 2 4:52 pm — Oct 17 4:52 pm, Abilene. Weather by CustomWeather, © 2019

Note: Actual official high and low records may vary slightly from our data, if they occured in-between our weather recording intervals... More about our weather records

Advertising

Abilene Weather History for the Previous 24 Hours

Scroll right to see more
 ConditionsComfort  
Time TempWeatherWind HumidityBarometerVisibility
4:52 pm
Thu, Oct 17
80 °FSunny.10 mph14%29.87 "Hg10 mi
3:52 pm79 °FSunny.8 mph14%29.88 "Hg10 mi
2:52 pm77 °FSunny.6 mph16%29.91 "Hg10 mi
1:52 pm75 °FSunny.8 mph17%29.95 "Hg10 mi
12:52 pm72 °FSunny.13 mph19%29.98 "Hg10 mi
11:52 am67 °FSunny.10 mph25%30.02 "Hg10 mi
10:52 am63 °FSunny.8 mph31%30.05 "Hg10 mi
8:52 am47 °FSunny.3 mph69%30.06 "Hg10 mi
7:52 am49 °FSunny.5 mph57%30.04 "Hg10 mi
6:52 am48 °FClear.7 mph61%30.04 "Hg10 mi
5:52 am51 °FClear.No wind48%30.05 "Hg10 mi
4:52 am51 °FClear.5 mph48%30.02 "Hg10 mi
3:52 am51 °FClear.9 mph50%30.03 "Hg10 mi
2:52 am47 °FClear.7 mph64%30.06 "Hg10 mi
1:52 am48 °FClear.6 mph59%30.08 "Hg10 mi
12:52 am47 °FClear.8 mph61%30.09 "Hg10 mi
11:52 pm
Wed, Oct 16
48 °FClear.6 mph59%30.10 "Hg10 mi
10:52 pm50 °FClear.7 mph54%30.11 "Hg10 mi
9:52 pm53 °FClear.7 mph48%30.11 "Hg10 mi
8:52 pm58 °FClear.5 mph36%30.11 "Hg10 mi
7:52 pm63 °FClear.5 mph27%30.10 "Hg10 mi
6:52 pm67 °FSunny.3 mph22%30.11 "Hg10 mi
Weather by CustomWeather, © 2019

See weather overview